Погода в Жипхегене

Россия / Забайкальский край     51°27′21″N   110°10′11″E
темп.,
°C
ветер,
м/с
пор.,
м/с
влажн.,
%
обл.,
%
осадки,
мм/ч
давл.,
гПа
погр.,
м
11 мая, вт
вт1100:000зюз119654 0.0 101213
03:000зюз15100100 2.0 1011205
06:00+1сз1498100 1.1 1011228
09:00+2зсз2497100 1.3 1013305
12:00+5зсз357982 0.1 1012838
15:00+8зсз5862100 0.4 10101542
18:00+9сз58515 0.8 10091753
21:00+3зсз22784 0.8 101230
12 мая, ср
ср1200:000з23875 0.0 101437
03:00−2зюз22977 0.0 101521
06:00−2юз21978 0.0 101419
09:00+6з48682 0.0 1011708
12:00+10з695188 0.7 10082043
15:00+11зсз7114997 1.9 10072424
18:00+9сз595419 1.0 10081573
21:00+5ссз38586 1.0 1010283
13 мая, чт
чт1300:000сз247799 0.0 101366
03:00−1з228397 0.0 101431
06:00−2з27760 0.0 1014180
09:00+3зсз58455 0.0 10121627
12:00+6зсз6830100 0.0 10102851
15:00+7зсз7827100 0.0 10103317
18:00+6сз583355 0.0 10102395
21:00+2сз49555 0.0 1012647
14 мая, пт
пт1400:00−1зсз397424 0.0 1015335
03:00−4з11935 0.0 101713
06:00−4зюз11955 0.0 101811
09:00+3зюз23595 0.0 1017613
12:00+9сз35355 0.0 10131849
15:00+12сз45285 0.0 10112363
18:00+13ссз34275 0.0 10112358
21:00+7з11430 0.0 101310
15 мая, сб
сб1500:00+2зюз11520 0.0 101610
03:000ююз11590 0.0 101711
06:00−1ю11670 0.0 101813
09:00+8ююз24384 0.0 1015353
12:00+15зюз472057 0.0 10121678
15:00+18зюз5718100 0.0 10093134
18:00+16з572492 0.0 10092833
21:00+10сз374798 0.0 1010190